FW8290 Weather Reports


time (UTC)temp
C
wind
direction
speed
KPH
gust
KPH
rain 1hr
cm
rain 24hr
cm
rain mn
cm
humidity
%
barometer
mb
20260505034549 16 0 0.0 0.0 0.00 0.00 0.00 62 1011.1
20260505033048 16 0 0.0 4.8 0.00 0.00 0.00 62 1011.1
20260505031553 15 93 0.0 3.2 0.00 0.00 0.00 61 1011.2
20260505030049 15 172 0.0 3.2 0.00 0.00 0.00 63 1011.2
20260505024554 16 0 0.0 3.2 0.00 0.00 0.00 58 1011.2
20260505023051 16 0 0.0 3.2 0.00 0.00 0.00 56 1011.2
20260505021554 17 57 0.0 3.2 0.00 0.00 0.00 54 1011.4
20260505020057 17 57 0.0 3.2 0.00 0.00 0.00 54 1011.5
20260505014557 17 0 0.0 1.6 0.00 0.00 0.00 53 1011.5
20260505013104 17 0 0.0 1.6 0.00 0.00 0.00 54 1011.3
20260505011553 18 0 0.0 0.0 0.00 0.00 0.00 52 1011.1
20260505010108 18 0 0.0 4.8 0.00 0.00 0.00 52 1011.0
20260505004553 18 0 0.0 4.8 0.00 0.00 0.00 49 1010.9
20260505003057 18 105 1.6 9.7 0.00 0.00 0.00 50 1010.8
20260505001604 19 0 0.0 1.6 0.00 0.00 0.00 48 1010.7
20260505000058 20 0 0.0 6.4 0.00 0.00 0.00 45 1010.6
20260504234550 20 0 0.0 8.0 0.00 0.00 0.00 45 1010.5
20260504233106 20 167 1.6 8.0 0.00 0.00 0.00 44 1010.5
20260504231552 21 0 0.0 8.0 0.00 0.00 0.00 45 1010.6
20260504230057 21 161 3.2 11.3 0.00 0.00 0.00 42 1010.5
20260504224551 21 117 1.6 8.0 0.00 0.00 0.00 43 1010.6
20260504223051 21 196 1.6 14.5 0.00 0.00 0.00 43 1010.5
20260504221550 21 235 1.6 14.5 0.00 0.00 0.00 41 1010.5
20260504220054 21 130 6.4 16.1 0.00 0.00 0.00 41 1010.7
20260504214555 22 134 3.2 16.1 0.00 0.00 0.00 40 1010.7
20260504213047 22 243 3.2 9.7 0.00 0.00 0.00 39 1010.6
20260504211547 22 247 4.8 12.9 0.00 0.00 0.00 40 1010.8
20260504210105 22 175 1.6 16.1 0.00 0.00 0.00 44 1010.6
20260504204559 22 138 3.2 17.7 0.00 0.00 0.00 39 1010.7
20260504203103 22 159 4.8 19.3 0.00 0.00 0.00 40 1010.9
20260504201555 21 140 3.2 14.5 0.00 0.00 0.00 45 1011.2
20260504200055 21 245 4.8 17.7 0.00 0.00 0.00 41 1011.3
20260504194555 21 238 3.2 14.5 0.00 0.00 0.00 41 1011.6
20260504193051 21 42 6.4 19.3 0.00 0.00 0.00 42 1011.7
20260504191550 21 182 3.2 14.5 0.00 0.00 0.00 43 1011.9
20260504190112 21 247 6.4 16.1 0.00 0.00 0.00 40 1012.0
20260504184550 21 258 4.8 14.5 0.00 0.00 0.00 41 1012.0
20260504183054 21 230 4.8 12.9 0.00 0.00 0.00 42 1012.2
20260504181555 20 258 4.8 20.9 0.00 0.00 0.00 41 1012.5
20260504180051 20 196 4.8 16.1 0.00 0.00 0.00 46 1012.6
20260504174553 20 127 3.2 20.9 0.00 0.00 0.00 41 1012.8
20260504173057 20 223 8.0 24.1 0.00 0.00 0.00 40 1013.0
20260504171553 20 188 4.8 17.7 0.00 0.00 0.00 43 1013.2
20260504081600 3 0 0.0 0.0 0.00 0.00 0.00 92 1015.6
20260504060106 3 0 0.0 0.0 0.00 0.00 0.00 90 1015.4
20260504050103 3 0 0.0 0.0 0.00 0.00 0.00 89 1015.5
20260504044551 3 0 0.0 0.0 0.00 0.00 0.00 88 1015.6
20260504043101 4 0 0.0 0.0 0.00 0.00 0.00 87 1015.4
20260504041547 4 0 0.0 0.0 0.00 0.00 0.00 86 1015.3
20260504040050 4 0 0.0 1.6 0.00 0.00 0.00 85 1015.3